Home   Weather   Minden   Past weeks

Flag for Germany Past Weather in Minden, North Rhine-Westphalia, Germany — Yesterday and Last 2 Weeks

Now
37 °F

Passing clouds.


Feels Like: 35 °F
Forecast: 35 / 52 °F
Wind: 3 mph from South

Location: Bueckeburg

Current Time: Apr 25, 2017 at 10:36:18 pm

Latest Report: Apr 25, 2017 at 9:20 pm


Visibility: N/A

Pressure: 29.80 "Hg

Humidity: 93%

Dew Point: 36 °F

Location of MindenLocation

Past Weather in Minden — Graph

°F

Minden Temperature Yesterday

Maximum temperature yesterday: 55 °F (at 1:20 pm)
Minimum temperature yesterday: 34 °F (at 12:20 am)
Average temperature yesterday: 46 °F

High & Low Weather Summary for the Past Weeks

 TemperatureHumidityPressure
High57 °F (Apr 21, 1:20 pm)94% (Apr 12, 7:00 pm)30.63 "Hg (Apr 12, 7:00 pm)
Low27 °F (Apr 19, 6:20 am)35% (Apr 20, 5:20 pm)29.62 "Hg (Apr 25, 4:41 am)
Average45 °F73%30.12 "Hg
* Reported Apr 10 8:20 pm — Apr 25 8:20 pm, Minden, Weather by CustomWeather, © 2017

Note: Actual official high and low records may vary slightly from our data, if they occured in-between our weather recording intervals... More about our weather records

Advertising

Minden Weather History for the Previous 24 Hours

Scroll right to see more
 ConditionsComfort  
Time TempWeatherWind HumidityBarometerVisibility
8:20 pm
Tue, Apr 25
43 °FPassing clouds.5 mph71%29.80 "HgN/A
7:20 pm45 °FScattered clouds.6 mph66%29.77 "HgN/A
6:20 pm45 °FScattered showers. Scattered clouds.7 mph66%29.77 "HgN/A
5:20 pm45 °FScattered clouds.13 mph71%29.77 "HgN/A
4:20 pm43 °FPassing clouds.9 mph81%29.74 "HgN/A
3:36 pm39 °FSnow showers. Partly sunny.22 mph81%29.74 "HgN/A
3:20 pm46 °FScattered showers. Partly sunny.13 mph76%29.74 "HgN/A
2:20 pm45 °FSprinkles. Partly sunny.30 mph66%29.71 "HgN/A
1:20 pm50 °FScattered clouds.22 mph50%29.68 "HgN/A
12:20 pm48 °FScattered showers. Partly sunny.22 mph54%29.68 "HgN/A
11:20 am46 °FPartly sunny.18 mph62%29.65 "HgN/A
10:20 am45 °FPassing clouds.21 mph61%29.65 "HgN/A
9:20 am43 °FPartly sunny.21 mph76%29.65 "HgN/A
8:45 am43 °FBroken clouds.15 mph87%29.65 "HgN/A
8:20 am43 °FPartly sunny.13 mph87%29.62 "HgN/A
7:55 am41 °FPartly sunny.9 mph93%29.62 "HgN/A
7:35 am41 °FLight rain. Partly sunny.12 mph93%29.62 "HgN/A
7:20 am41 °FBroken clouds.10 mph93%29.62 "HgN/A
6:20 am41 °FBroken clouds.8 mph93%29.62 "HgN/A
5:39 am41 °FLight rain. Mostly cloudy.5 mph93%29.62 "HgN/A
5:20 am41 °FLight rain. Mostly cloudy.2 mph93%29.62 "HgN/A
5:08 am41 °FLight rain. Partly cloudy.2 mph93%29.62 "Hg5 mi
4:41 am41 °FRain. Mostly cloudy.6 mph93%29.62 "Hg4 mi
4:20 am41 °FLight rain. Mostly cloudy.3 mph93%29.65 "Hg5 mi
3:20 am43 °FLight rain. Partly cloudy.10 mph93%29.65 "Hg4 mi
2:20 am45 °FDrizzle. Fog.3 mph93%29.65 "Hg3 mi
1:44 am48 °FDrizzle. Mostly cloudy.14 mph82%29.65 "Hg4 mi
1:20 am48 °FPassing clouds.9 mph82%29.65 "HgN/A
12:20 am48 °FOvercast.9 mph82%29.68 "HgN/A
11:20 pm
Mon, Apr 24
48 °FOvercast.7 mph87%29.71 "HgN/A
10:20 pm48 °FOvercast.6 mph87%29.74 "HgN/A
Weather by CustomWeather, © 2017

See weather overviewHow to use our weather pages